TELSTAR 14R

Last updated on Thu Oct 30 2025 00:02:48 GMT+0000 (Coordinated Universal Time)

1 37602U 11021A 25302.37002171 -.00000270 00000+0 00000+0 0 9994 2 37602 0.0442 78.9410 0000866 204.3859 184.8701 1.00270267 53529
UTC large
Height (km)
Speed (km/s)
/
Latitude / Longitude
Inclination (degrees)
Orbital Period (minutes)
Azimuth
Elevation
Range (km)
Doppler Factor

Next 0 passes for location: London (51.5072 / 0.1276)

Sorry there are no passes over London.